• In Russia
  • List of Countries
  • For 7 days
  • Water Temperature
  • Satellite Maps
  • Weather Map
  • Weather Widgets
  • user-avatar
    Login

    Hourly Weather Harare

    Today, 25 May, Friday

    Time Temperature Precipitation Wind Pressure Humidity
    00:00 +15°C° 0 mm 1 mps 640 mmHg 66%
    01:00 +14°C° 0 mm 1 mps 639 mmHg 69%
    02:00 +13°C° 0 mm 1 mps 639 mmHg 72%
    03:00 +13°C° 0 mm 1 mps 639 mmHg 74%
    04:00 +12°C° 0 mm 1 mps 639 mmHg 75%
    05:00 +12°C° 0 mm 1 mps 639 mmHg 76%
    06:00 +14°C° 0 mm 1 mps 640 mmHg 70%
    07:00 +15°C° 0 mm 1 mps 641 mmHg 65%
    08:00 +18°C° 0 mm 1 mps 641 mmHg 59%
    09:00 +20°C° 0 mm 1 mps 642 mmHg 51%
    10:00 +22°C° 0 mm 1 mps 642 mmHg 44%
    11:00 +25°C° 0 mm 1 mps 643 mmHg 36%
    12:00 +25°C° 0 mm 1 mps 643 mmHg 34%
    13:00 +26°C° 0 mm 1 mps 642 mmHg 32%
    14:00 +26°C° 0 mm 1 mps 641 mmHg 29%
    15:00 +25°C° 0 mm 1 mps 641 mmHg 33%
    16:00 +23°C° 0 mm 1 mps 640 mmHg 37%
    17:00 +22°C° 0 mm 1 mps 640 mmHg 41%
    18:00 +20°C° 0 mm 1 mps 640 mmHg 43%
    19:00 +19°C° 0 mm 1 mps 640 mmHg 46%
    20:00 +16°C° 0 mm 1 mps 639 mmHg 48%
    21:00 +16°C° 0 mm 1 mps 640 mmHg 50%
    22:00 +15°C° 0 mm 1 mps 640 mmHg 52%
    23:00 +14°C° 0 mm 0 mps 640 mmHg 54%

    Tomorrow, 26 May, Saturday

    Time Temperature Precipitation Wind Pressure Humidity
    00:00 +14°C° 0 mm 1 mps 639 mmHg 57%
    01:00 +14°C° 0 mm 1 mps 639 mmHg 59%
    02:00 +14°C° 0 mm 1 mps 639 mmHg 62%
    03:00 +13°C° 0 mm 1 mps 639 mmHg 67%
    04:00 +13°C° 0 mm 1 mps 639 mmHg 72%
    05:00 +13°C° 0 mm 1 mps 639 mmHg 77%
    06:00 +14°C° 0 mm 1 mps 640 mmHg 74%
    07:00 +16°C° 0 mm 1 mps 641 mmHg 71%
    08:00 +18°C° 0 mm 1 mps 642 mmHg 68%
    09:00 +19°C° 0 mm 2 mps 642 mmHg 59%
    10:00 +21°C° 0 mm 2 mps 643 mmHg 50%
    11:00 +24°C° 0 mm 2 mps 643 mmHg 41%
    12:00 +25°C° 0 mm 2 mps 643 mmHg 39%
    13:00 +25°C° 0 mm 2 mps 642 mmHg 37%
    14:00 +26°C° 0 mm 2 mps 642 mmHg 35%
    15:00 +25°C° 0 mm 2 mps 642 mmHg 41%
    16:00 +23°C° 0 mm 2 mps 641 mmHg 48%
    17:00 +21°C° 0 mm 2 mps 641 mmHg 54%
    18:00 +19°C° 0.4 mm 2 mps 641 mmHg 60%
    19:00 +19°C° 0.4 mm 1 mps 641 mmHg 66%
    20:00 +18°C° 0.4 mm 1 mps 641 mmHg 73%
    21:00 +16°C° 0.1 mm 1 mps 641 mmHg 75%
    22:00 +16°C° 0.1 mm 1 mps 641 mmHg 77%
    23:00 +16°C° 0.1 mm 1 mps 641 mmHg 78%

    Day after tomorrow, 27 May, Sunday

    Time Temperature Precipitation Wind Pressure Humidity
    00:00 +15°C° 0 mm 1 mps 641 mmHg 81%
    01:00 +15°C° 0 mm 1 mps 641 mmHg 83%
    02:00 +15°C° 0 mm 1 mps 640 mmHg 85%
    03:00 +14°C° 0 mm 1 mps 640 mmHg 86%
    04:00 +14°C° 0 mm 1 mps 640 mmHg 88%
    05:00 +14°C° 0 mm 1 mps 640 mmHg 89%
    06:00 +15°C° 0 mm 1 mps 641 mmHg 84%
    07:00 +16°C° 0 mm 1 mps 642 mmHg 78%
    08:00 +18°C° 0 mm 1 mps 643 mmHg 73%
    09:00 +19°C° 0.1 mm 2 mps 643 mmHg 64%
    10:00 +21°C° 0.1 mm 2 mps 644 mmHg 56%
    11:00 +24°C° 0.1 mm 2 mps 644 mmHg 47%
    12:00 +24°C° 0 mm 2 mps 644 mmHg 45%
    13:00 +25°C° 0 mm 2 mps 643 mmHg 43%
    14:00 +25°C° 0 mm 1 mps 643 mmHg 42%
    15:00 +24°C° 0 mm 1 mps 642 mmHg 46%
    16:00 +23°C° 0 mm 1 mps 642 mmHg 50%
    17:00 +21°C° 0 mm 1 mps 642 mmHg 54%
    18:00 +20°C° 0 mm 1 mps 642 mmHg 57%
    19:00 +19°C° 0 mm 1 mps 642 mmHg 60%
    20:00 +18°C° 0 mm 1 mps 642 mmHg 63%
    21:00 +18°C° 0 mm 1 mps 642 mmHg 66%
    22:00 +16°C° 0 mm 1 mps 642 mmHg 68%
    23:00 +16°C° 0 mm 1 mps 642 mmHg 70%

    28 May, Monday

    Time Temperature Precipitation Wind Pressure Humidity
    00:00 +15°C° 0 mm 1 mps 642 mmHg 73%
    01:00 +14°C° 0 mm 1 mps 642 mmHg 75%
    02:00 +14°C° 0 mm 1 mps 641 mmHg 77%
    03:00 +13°C° 0 mm 1 mps 641 mmHg 78%
    04:00 +13°C° 0 mm 1 mps 641 mmHg 79%
    05:00 +13°C° 0 mm 1 mps 641 mmHg 80%
    06:00 +14°C° 0 mm 1 mps 642 mmHg 74%
    07:00 +15°C° 0 mm 1 mps 643 mmHg 69%
    08:00 +18°C° 0 mm 1 mps 644 mmHg 63%
    09:00 +20°C° 0 mm 1 mps 644 mmHg 53%
    10:00 +21°C° 0 mm 2 mps 645 mmHg 44%
    11:00 +24°C° 0 mm 2 mps 645 mmHg 34%
    12:00 +25°C° 0 mm 2 mps 644 mmHg 32%
    13:00 +26°C° 0 mm 2 mps 644 mmHg 30%
    14:00 +26°C° 0 mm 2 mps 643 mmHg 28%
    15:00 +25°C° 0 mm 2 mps 643 mmHg 32%
    16:00 +24°C° 0 mm 1 mps 642 mmHg 36%
    17:00 +22°C° 0 mm 1 mps 641 mmHg 40%
    18:00 +21°C° 0 mm 1 mps 641 mmHg 43%
    19:00 +19°C° 0 mm 1 mps 641 mmHg 47%
    20:00 +16°C° 0 mm 2 mps 641 mmHg 51%
    21:00 +15°C° 0 mm 2 mps 641 mmHg 52%
    22:00 +15°C° 0 mm 2 mps 641 mmHg 53%
    23:00 +14°C° 0 mm 2 mps 641 mmHg 54%

    29 May, Tuesday

    Time Temperature Precipitation Wind Pressure Humidity
    00:00 +13°C° 0 mm 1 mps 641 mmHg 55%
    01:00 +13°C° 0 mm 1 mps 640 mmHg 57%
    02:00 +12°C° 0 mm 1 mps 640 mmHg 59%
    03:00 +12°C° 0 mm 1 mps 640 mmHg 60%
    04:00 +12°C° 0 mm 1 mps 640 mmHg 62%
    05:00 +11°C° 0 mm 1 mps 640 mmHg 63%
    06:00 +13°C° 0 mm 1 mps 641 mmHg 59%
    07:00 +15°C° 0 mm 1 mps 642 mmHg 55%
    08:00 +16°C° 0 mm 1 mps 642 mmHg 51%
    09:00 +20°C° 0 mm 1 mps 643 mmHg 44%
    10:00 +23°C° 0 mm 1 mps 644 mmHg 38%
    11:00 +26°C° 0 mm 1 mps 644 mmHg 32%
    12:00 +26°C° 0 mm 1 mps 644 mmHg 30%
    13:00 +27°C° 0 mm 1 mps 643 mmHg 28%
    14:00 +26°C° 0 mm 0 mps 642 mmHg 26%
    15:00 +26°C° 0 mm 1 mps 642 mmHg 30%
    16:00 +24°C° 0 mm 1 mps 641 mmHg 34%
    17:00 +22°C° 0 mm 1 mps 640 mmHg 37%
    18:00 +21°C° 0 mm 1 mps 640 mmHg 41%
    19:00 +19°C° 0 mm 1 mps 640 mmHg 44%
    20:00 +16°C° 0 mm 1 mps 640 mmHg 47%
    21:00 +16°C° 0 mm 1 mps 640 mmHg 49%
    22:00 +15°C° 0 mm 1 mps 639 mmHg 51%
    23:00 +15°C° 0 mm 1 mps 639 mmHg 53%

    30 May, Wednesday

    Time Temperature Precipitation Wind Pressure Humidity
    00:00 +14°C° 0 mm 1 mps 639 mmHg 54%
    01:00 +14°C° 0 mm 1 mps 639 mmHg 55%
    02:00 +13°C° 0 mm 1 mps 639 mmHg 56%
    03:00 +13°C° 0 mm 1 mps 639 mmHg 57%
    04:00 +13°C° 0 mm 1 mps 639 mmHg 58%
    05:00 +11°C° 0 mm 0 mps 639 mmHg 59%
    06:00 +13°C° 0 mm 0 mps 640 mmHg 56%
    07:00 +15°C° 0 mm 0 mps 641 mmHg 52%
    08:00 +16°C° 0 mm 0 mps 642 mmHg 49%
    09:00 +21°C° 0 mm 1 mps 642 mmHg 42%
    10:00 +23°C° 0 mm 1 mps 643 mmHg 36%
    11:00 +26°C° 0 mm 1 mps 643 mmHg 30%
    12:00 +27°C° 0 mm 2 mps 643 mmHg 28%
    13:00 +27°C° 0 mm 2 mps 642 mmHg 25%
    14:00 +28°C° 0 mm 2 mps 641 mmHg 23%
    15:00 +26°C° 0 mm 2 mps 641 mmHg 26%
    16:00 +25°C° 0 mm 2 mps 641 mmHg 30%
    17:00 +23°C° 0 mm 2 mps 640 mmHg 33%
    18:00 +21°C° 0 mm 2 mps 640 mmHg 35%
    19:00 +19°C° 0 mm 2 mps 640 mmHg 37%
    20:00 +17°C° 0 mm 2 mps 640 mmHg 38%
    21:00 +17°C° 0 mm 2 mps 640 mmHg 41%
    22:00 +16°C° 0 mm 2 mps 640 mmHg 44%
    23:00 +15°C° 0 mm 2 mps 640 mmHg 46%
    Show more